Pagrindinis puslapis
METAR-TAF:

METAR-TAF

Oro uostai :

Žakarepagva oro uostas

Rio de Žaneiras, Rio de Janeiro, Brazilija

platuma: 22-59S, ilguma: 043-22W, Aukštis: 3 m

Dabartinis oras

Ataskaita buvo paskelbta 47 minutes, ne 10:00 UTC
Vėjas 4 kt iš Šiaurės/Šiaurės Rytų
Temperatūra 24°C
Drėgmė 83%
Slėgis 1013 hPa
Matomumas 10 km arba daugiau
nėra debesų žemiau 1500 m ir nėra kamuolinių lietaus debesų

METAR: SBJR 091000Z 02004KT CAVOK 24/21 Q1013

Laikas: 07:47 (10:47 UTC)


TAF: trūkstamas

Orai ataskaitas ir orų prognozės (METAR, TAF).

turimą stotys yra geltonos ir raudonos taškus žemėlapyje.

Perkelti pele per norėdami pamatyti stoties vardą.

Tada spustelėkite, norėdami matyti oro stebėjimo ir prognozės.

Norėdami pakeisti žemėlapį: spustelėkite ant žalios mygtukų su juodo kryžiaus žemyn,; žalią mygtuką su brūkšneliu, jei norite nutolinti; arba žalių rodyklių gretimoms žemėlapius.


METAR-TAF: